Location: Saratoga Springs
(43.0831°N, 73.7850°W)
Time: 22:24:19
(UTC-04:00)

Vanguard 2 Rocket - Pass Details

Date: 17 April 2024
Orbit: 556 x 3304 km, 32.9° (Epoch: 21 May)

Event Time Altitude Azimuth Distance (km) Brightness Sun altitude
Rises 22:40:58 0° 231° (SW) 6,386 11.2 -28.0°
Reaches altitude 10° 22:44:59 10° 226° (SW) 5,647 10.8 -28.4°
Maximum altitude 23:02:26 50° 158° (SSE) 3,870 9.5 -30.2°
Drops below altitude 10° 23:20:25 10° 91° (E) 5,827 10.7 -31.8°
Sets 23:24:37 0° 86° (E) 6,595 11.1 -32.2°
